Location: Artiguedieu
(43.5000°N, 0.5454°E)
Time: 22:46:42
(UTC+00:00)

Transit 2A Rocket - Pass Details

Date: 29 July 2021
Orbit: 586 x 916 km, 66.7° (Epoch: 19 September)

Event Time Altitude Azimuth Distance (km) Brightness Sun altitude
Rises 15:56:37 0° 248° (WSW) 2,858 8.9 35.7°
Reaches altitude 10° 15:59:12 10° 263° (W) 1,993 8.6 35.2°
Maximum altitude 16:02:47 23° 316° (NW) 1,383 7.1 34.6°
Drops below altitude 10° 16:06:36 10° 9° (N) 2,138 7.3 33.9°
Sets 16:09:30 0° 24° (NNE) 3,123 7.9 33.3°
